DW7281 Weather Reports


time (UTC)temp
F
wind
direction
speed
knots
gust
knots
rain 1hr
in
rain 24hr
in
rain mn
in
humidity
%
barometer
mb
20260902161601 56 0 0.0 0.0 0.00 0.00 0.00 67 1023.6
20260902160105 56 0 0.0 0.0 0.00 0.00 0.00 67 1023.6
20260902154554 57 0 0.0 0.0 0.00 0.00 0.00 66 1023.8
20260902153100 57 0 0.0 0.0 0.00 0.00 0.00 66 1024.1
20260902151547 57 0 0.0 0.0 0.00 0.00 0.00 65 1024.2
20260902150055 57 0 0.0 0.0 0.00 0.00 0.00 65 1024.4
20260902144551 57 0 0.0 0.0 0.00 0.00 0.00 65 1024.5
20260902143047 57 0 0.0 0.0 0.00 0.00 0.00 65 1024.6
20260902141554 57 0 0.0 0.0 0.00 0.00 0.00 66 1024.7
20260902140054 56 0 0.0 0.0 0.00 0.00 0.00 67 1024.8
20260902134555 56 0 0.0 0.0 0.00 0.00 0.00 67 1024.5
20260902133057 56 0 0.0 0.0 0.00 0.00 0.00 67 1024.5
20260902131556 57 0 0.0 0.0 0.00 0.00 0.00 66 1024.6
20260902130052 57 0 0.0 0.0 0.00 0.00 0.00 66 1024.7
20260902124554 57 0 0.0 0.0 0.00 0.00 0.00 66 1024.9
20260902123120 58 0 0.0 0.0 0.00 0.00 0.00 65 1024.7
20260902121559 58 0 0.0 0.0 0.00 0.00 0.00 64 1024.7
20260902120054 58 0 0.0 0.0 0.00 0.00 0.00 64 1024.7
20260902114606 58 0 0.0 0.0 0.00 0.00 0.00 64 1024.9
20260902113105 58 0 0.0 0.0 0.00 0.00 0.00 64 1024.8
20260902111600 59 0 0.0 0.0 0.00 0.00 0.00 64 1024.9
20260902104603 59 0 0.0 0.0 0.00 0.00 0.00 63 1024.9
20260902103052 59 0 0.0 0.0 0.00 0.00 0.00 63 1024.7
20260902101555 59 0 0.0 0.0 0.00 0.00 0.00 63 1024.7
20260902100056 60 0 0.0 0.0 0.00 0.00 0.00 62 1024.6
20260902094600 61 0 0.0 0.0 0.00 0.00 0.00 61 1024.5
20260902093103 62 0 0.0 0.0 0.00 0.00 0.00 59 1024.3
20260902091555 62 0 0.0 0.0 0.00 0.00 0.00 58 1024.3
20260902090051 63 0 0.0 0.0 0.00 0.00 0.00 58 1024.2
20260902084550 64 0 0.0 0.0 0.00 0.00 0.00 56 1024.1
20260902083053 65 0 0.0 0.0 0.00 0.00 0.00 55 1023.8
20260902081554 66 0 0.0 0.0 0.00 0.00 0.00 54 1023.8
20260902080052 67 0 0.0 0.0 0.00 0.00 0.00 53 1023.8
20260902074602 67 0 0.0 0.0 0.00 0.00 0.00 52 1023.6
20260902073053 68 0 0.0 0.0 0.00 0.00 0.00 52 1023.6
20260902071552 68 0 0.0 2.6 0.00 0.00 0.00 51 1023.5
20260902070052 68 0 0.0 0.0 0.00 0.00 0.00 50 1023.4
20260902064549 68 0 0.0 4.3 0.00 0.00 0.00 48 1023.3
20260902063054 69 0 0.0 6.1 0.00 0.00 0.00 47 1023.2
20260902061600 71 360 1.7 8.7 0.00 0.00 0.00 46 1023.1
20260902060100 71 0 0.0 0.0 0.00 0.00 0.00 46 1022.9
20260902054611 71 0 0.0 6.1 0.00 0.00 0.00 45 1023.1
20260902053105 72 0 1.7 7.0 0.00 0.00 0.00 43 1023.0
20260902051555 73 155 2.6 7.8 0.00 0.00 0.00 41 1023.4
20260902050058 74 202 3.5 9.6 0.00 0.00 0.00 39 1023.5
20260902044554 74 0 0.9 7.8 0.00 0.00 0.00 42 1023.7
20260902043103 73 209 3.5 9.6 0.00 0.00 0.00 43 1023.7
20260902041556 72 165 3.5 10.4 0.00 0.00 0.00 44 1023.9
20260902040058 74 0 2.6 9.6 0.00 0.00 0.00 43 1023.9
20260902034556 72 0 1.7 8.7 0.00 0.00 0.00 45 1024.2
20260902033057 73 222 2.6 8.7 0.00 0.00 0.00 45 1024.4
20260902031556 73 184 5.2 13.0 0.00 0.00 0.00 44 1024.7
20260902030055 73 173 6.1 11.3 0.00 0.00 0.00 45 1024.9
20260902024558 74 196 4.3 12.2 0.00 0.00 0.00 45 1025.1
20260902023108 73 211 0.0 8.7 0.00 0.00 0.00 46 1025.5
20260902021554 73 198 3.5 10.4 0.00 0.00 0.00 47 1026.0
20260902020046 72 0 1.7 10.4 0.00 0.00 0.00 48 1026.2
20260902014555 72 207 4.3 12.2 0.00 0.00 0.00 49 1026.5
20260902013056 71 218 4.3 9.6 0.00 0.00 0.00 50 1026.8
20260902011554 70 267 2.6 12.2 0.00 0.00 0.00 51 1027.2
20260902010049 70 246 3.5 12.2 0.00 0.00 0.00 52 1027.3
20260902004556 69 248 3.5 10.4 0.00 0.00 0.00 52 1027.7
20260902003055 68 260 3.5 9.6 0.00 0.00 0.00 57 1027.8
20260902001602 68 224 2.6 10.4 0.00 0.00 0.00 57 1027.9
20260901234555 65 233 4.3 10.4 0.00 0.00 0.00 62 1028.2
20260901233058 65 265 6.1 11.3 0.00 0.00 0.00 63 1028.3
20260901231602 64 236 3.5 12.2 0.00 0.00 0.00 63 1028.2
20260901230056 63 212 4.3 10.4 0.00 0.00 0.00 66 1028.3
20260901224600 62 203 2.6 7.8 0.00 0.00 0.00 70 1028.3
20260901223056 60 360 4.3 9.6 0.00 0.00 0.00 74 1028.3
20260901221601 60 224 3.5 9.6 0.00 0.00 0.00 74 1028.1
20260901220054 59 219 5.2 8.7 0.00 0.00 0.00 74 1028.1
20260901214548 58 201 2.6 7.8 0.00 0.00 0.00 76 1027.9
20260901213056 57 0 1.7 7.0 0.00 0.00 0.00 78 1027.8
20260901211553 55 211 1.7 7.0 0.00 0.00 0.00 79 1027.8
20260901210057 52 230 0.9 5.2 0.00 0.00 0.00 84 1027.4
20260901204553 50 0 0.0 3.5 0.00 0.00 0.00 85 1027.2
20260901203056 49 0 0.0 0.0 0.00 0.00 0.00 85 1026.9
20260901201549 50 0 0.0 0.0 0.00 0.00 0.00 85 1026.8
20260901200053 50 0 0.0 0.0 0.00 0.00 0.00 85 1026.9
20260901194555 50 0 0.0 0.0 0.00 0.00 0.00 86 1026.6
20260901193056 50 0 0.0 0.0 0.00 0.00 0.00 86 1026.4
20260901191601 50 0 0.0 0.0 0.00 0.00 0.00 86 1026.4
20260901190050 50 0 0.0 0.0 0.00 0.00 0.00 85 1026.3
20260901184548 50 0 0.0 0.0 0.00 0.00 0.00 85 1026.2
20260901183056 51 0 0.0 0.0 0.00 0.00 0.00 85 1026.3
20260901181600 51 0 0.0 0.0 0.00 0.00 0.00 85 1026.3
20260901180053 51 0 0.0 0.0 0.00 0.00 0.00 85 1026.2
20260901174549 51 0 0.0 0.0 0.00 0.00 0.00 85 1026.3
20260901173101 52 0 0.0 0.0 0.00 0.00 0.00 85 1026.3
20260901171602 52 0 0.0 0.0 0.00 0.00 0.00 85 1026.4
20260901170058 53 0 0.0 0.0 0.00 0.00 0.00 85 1026.6
20260901164557 53 0 0.0 0.0 0.00 0.00 0.00 85 1026.8
20260901163053 53 0 0.0 2.6 0.00 0.00 0.00 85 1027.1